QPF
0.08 0.05 0.03 0.00 0.00 0.00 0.00 0.00 0.00 0.00 0.00 0.01 0.00 0.00 0.00 0.01 0.04 0.06 0.08 0.03 0.00 0.00 0.00 0.00 0.00 0.00 0.00 0.00 0.00 0.00 0.00 0.00 0.00 0.00 0.00 0.00 0.00 0.00 0.00 0.00 0.00 0.00 0.00 0.00
0.06 0.03 0.02 0.00 0.00 0.00 0.00 0.00 0.00 0.00 0.00 0.00 0.00 0.00 0.00 0.01 0.02 0.05 0.04 0.02 0.01 0.00 0.00 0.00 0.00 0.00 0.00 0.00 0.00 0.00 0.00 0.00 0.00 0.00 0.00 0.00 0.00 0.00 0.00 0.00 0.00 0.00 0.00 0.00
0.02 0.01 0.01 0.01 0.00 0.00 0.00 0.00 0.00 0.00 0.01 0.01 0.00 0.00 0.00 0.00 0.02 0.07 0.11 0.05 0.02 0.00 0.00 0.00 0.01 0.00 0.00 0.00 0.00 0.00 0.00 0.00 0.00 0.00 0.00 0.00 0.00 0.00 0.00 0.00 0.00 0.00 0.00 0.00
0.05 0.03 0.02 0.01 0.00 0.00 0.00 0.00 0.00 0.00 0.01 0.00 0.01 0.00 0.00 0.00 0.00 0.01 0.04 0.04 0.02 0.00 0.00 0.00 0.01 0.00 0.00 0.00 0.00 0.00 0.00 0.00 0.00 0.00 0.00 0.00 0.00 0.00 0.00 0.00 0.00 0.00 0.00 0.00
0.03 0.01 0.01 0.01 0.00 0.00 0.00 0.00 0.00 0.00 0.00 0.00 0.00 0.00 0.00 0.00 0.00 0.00 0.00 0.01 0.03 0.02 0.01 0.00 0.00 0.00 0.00 0.00 0.00 0.00 0.00 0.00 0.00 0.00 0.00 0.00 0.00 0.00 0.00 0.00 0.00 0.00 0.00 0.00
0.03 0.01 0.01 0.01 0.01 0.00 0.00 0.01 0.01 0.00 0.00 0.00 0.00 0.00 0.00 0.00 0.00 0.00 0.00 0.00 0.02 0.03 0.04 0.04 0.01 0.00 0.00 0.00 0.00 0.01 0.02 0.01 0.01 0.00 0.00 0.00 0.00 0.00 0.00 0.00 0.00 0.00 0.00 0.00
0.01 0.00 0.00 0.02 0.03 0.01 0.01 0.00 0.00 0.00 0.00 0.00 0.00 0.00 0.00 0.00 0.00 0.00 0.00 0.02 0.02 0.03 0.07 0.07 0.06 0.05 0.03 0.01 0.01 0.01 0.02 0.01 0.00 0.00 0.00 0.00 0.00 0.00 0.00 0.00 0.00 0.00 0.00 0.00
0.00 0.01 0.00 0.01 0.02 0.01 0.01 0.00 0.00 0.00 0.00 0.00 0.00 0.00 0.00 0.00 0.00 0.00 0.00 0.06 0.07 0.05 0.06 0.07 0.08 0.09 0.10 0.07 0.03 0.00 0.00 0.01 0.00 0.01 0.01 0.01 0.00 0.00 0.00 0.00 0.00 0.00 0.00 0.00
0.01 0.01 0.01 0.01 0.02 0.02 0.02 0.01 0.00 0.00 0.00 0.00 0.00 0.00 0.00 0.00 0.00 0.00 0.00 0.02 0.02 0.03 0.03 0.06 0.07 0.04 0.02 0.03 0.03 0.02 0.02 0.02 0.02 0.02 0.01 0.01 0.00 0.00 0.00 0.00 0.00 0.00 0.00 0.00
0.00 0.01 0.01 0.01 0.01 0.02 0.02 0.01 0.00 0.00 0.00 0.00 0.00 0.00 0.00 0.00 0.00 0.00 0.00 0.00 0.01 0.03 0.04 0.06 0.04 0.01 0.00 0.00 0.01 0.01 0.01 0.01 0.01 0.00 0.00 0.00 0.00 0.00 0.00 0.00 0.00 0.00 0.00 0.00
0.00 0.00 0.00 0.01 0.00 0.01 0.02 0.01 0.00 0.00 0.00 0.00 0.00 0.00 0.00 0.00 0.00 0.00 0.00 0.01 0.03 0.04 0.05 0.05 0.03 0.01 0.00 0.00 0.00 0.00 0.00 0.00 0.00 0.00 0.00 0.00 0.00 0.00 0.00 0.00 0.00 0.00 0.00 0.00
0.00 0.00 0.00 0.00 0.00 0.00 0.01 0.01 0.00 0.00 0.00 0.00 0.00 0.00 0.00 0.00 0.00 0.00 0.00 0.01 0.03 0.04 0.03 0.02 0.01 0.01 0.00 0.00 0.00 0.00 0.00 0.00 0.00 0.00 0.00 0.00 0.00 0.00 0.00 0.00 0.00 0.00 0.00 0.00
0.00 0.00 0.00 0.00 0.00 0.00 0.00 0.00 0.00 0.00 0.00 0.00 0.00 0.00 0.00 0.00 0.00 0.00 0.00 0.00 0.00 0.01 0.01 0.01 0.00 0.00 0.00 0.00 0.00 0.00 0.00 0.00 0.00 0.00 0.00 0.00 0.00 0.00 0.00 0.00 0.00 0.00 0.00 0.00
0.00 0.00 0.00 0.00 0.00 0.00 0.00 0.00 0.00 0.00 0.00 0.00 0.00 0.00 0.00 0.00 0.00 0.00 0.00 0.00 0.00 0.00 0.00 0.00 0.00 0.00 0.00 0.00 0.00 0.00 0.00 0.00 0.00 0.00 0.00 0.00 0.00 0.00 0.00 0.00 0.00 0.00 0.00 0.00
0.00 0.00 0.00 0.00 0.00 0.00 0.00 0.00 0.00 0.00 0.00 0.00 0.00 0.00 0.00 0.00 0.00 0.00 0.00 0.00 0.00 0.00 0.00 0.00 0.00 0.00 0.00 0.00 0.00 0.00 0.00 0.00 0.00 0.00 0.00 0.00 0.00 0.00 0.00 0.00 0.00 0.00 0.00 0.00
0.00 0.00 0.00 0.00 0.00 0.00 0.00 0.00 0.00 0.00 0.00 0.00 0.00 0.00 0.00 0.00 0.00 0.00 0.00 0.00 0.00 0.00 0.00 0.00 0.00 0.00 0.00 0.00 0.00 0.00 0.00 0.00 0.00 0.00 0.00 0.00 0.00 0.00 0.00 0.00 0.00 0.00 0.00 0.00
0.00 0.00 0.00 0.00 0.00 0.00 0.00 0.00 0.00 0.00 0.00 0.00 0.00 0.00 0.00 0.00 0.00 0.00 0.00 0.00 0.00 0.00 0.00 0.00 0.00 0.00 0.00 0.00 0.00 0.00 0.00 0.00 0.00 0.00 0.00 0.00 0.00 0.00 0.00 0.00 0.00 0.00 0.00 0.00
0.00 0.00 0.00 0.00 0.00 0.00 0.00 0.00 0.00 0.00 0.00 0.00 0.00 0.00 0.00 0.00 0.00 0.00 0.00 0.00 0.00 0.00 0.00 0.00 0.00 0.00 0.00 0.00 0.00 0.00 0.00 0.00 0.00 0.00 0.00 0.00 0.00 0.00 0.00 0.00 0.00 0.00 0.00 0.00
0.00 0.00 0.00 0.00 0.00 0.00 0.00 0.00 0.00 0.00 0.00 0.00 0.00 0.00 0.00 0.00 0.00 0.00 0.00 0.00 0.00 0.00 0.00 0.00 0.00 0.00 0.00 0.00 0.00 0.00 0.00 0.00 0.00 0.00 0.00 0.00 0.00 0.00 0.00 0.00 0.00 0.00 0.00 0.00
0.00 0.00 0.00 0.00 0.00 0.00 0.00 0.00 0.00 0.00 0.00 0.00 0.00 0.00 0.00 0.00 0.00 0.00 0.00 0.00 0.00 0.00 0.00 0.00 0.00 0.00 0.00 0.00 0.00 0.00 0.00 0.00 0.00 0.00 0.00 0.00 0.00 0.00 0.00 0.00 0.00 0.00 0.00 0.00
0.00 0.00 0.00 0.00 0.00 0.00 0.00 0.00 0.00 0.00 0.00 0.00 0.00 0.00 0.00 0.00 0.00 0.00 0.00 0.00 0.00 0.00 0.00 0.00 0.00 0.00 0.00 0.00 0.00 0.00 0.00 0.00 0.00 0.00 0.00 0.00 0.00 0.00 0.00 0.00 0.00 0.00 0.00 0.00
0.00 0.00 0.00 0.00 0.00 0.00 0.00 0.00 0.00 0.00 0.00 0.00 0.00 0.00 0.00 0.00 0.00 0.00 0.00 0.00 0.00 0.00 0.00 0.00 0.00 0.00 0.00 0.00 0.00 0.00 0.00 0.00 0.00 0.00 0.00 0.00 0.00 0.00 0.00 0.00 0.00 0.00 0.00 0.00
0.00 0.00 0.00 0.00 0.00 0.00 0.00 0.00 0.00 0.00 0.00 0.00 0.00 0.00 0.00 0.00 0.00 0.00 0.00 0.00 0.00 0.00 0.00 0.00 0.00 0.00 0.00 0.00 0.00 0.00 0.00 0.00 0.00 0.00 0.00 0.00 0.00 0.00 0.00 0.00 0.00 0.00 0.00 0.00
0.00 0.00 0.00 0.00 0.00 0.00 0.00 0.00 0.00 0.00 0.00 0.00 0.00 0.00 0.00 0.00 0.00 0.00 0.00 0.00 0.00 0.00 0.00 0.00 0.00 0.00 0.00 0.00 0.00 0.00 0.00 0.00 0.00 0.00 0.00 0.00 0.00 0.00 0.00 0.00 0.00 0.00 0.00 0.00
0.00 0.00 0.00 0.00 0.00 0.00 0.00 0.00 0.00 0.00 0.00 0.00 0.00 0.00 0.00 0.00 0.00 0.00 0.00 0.00 0.00 0.00 0.00 0.00 0.00 0.00 0.00 0.00 0.00 0.00 0.00 0.00 0.00 0.00 0.00 0.00 0.00 0.00 0.00 0.00 0.00 0.00 0.00 0.00
0.00 0.00 0.00 0.00 0.00 0.00 0.00 0.00 0.00 0.00 0.00 0.00 0.00 0.00 0.00 0.00 0.00 0.00 0.00 0.00 0.00 0.00 0.00 0.00 0.00 0.00 0.00 0.00 0.00 0.00 0.00 0.00 0.00 0.00 0.00 0.00 0.00 0.00 0.00 0.00 0.00 0.00 0.00 0.00
MSLP
1013.20 1012.72 1010.89 1010.59 1010.73 1011.70 1012.38 1012.51 1012.13 1011.27 1010.86 1010.31 1009.59 1010.13 1009.25 1008.59 1009.50 1010.05 1010.61 1010.93 1010.76 1011.03 1011.46 1012.35 1012.89 1013.65 1014.43 1015.03 1015.55 1016.13 1016.75 1017.08 1017.59 1018.29 1019.04 1019.62 1020.43 1021.31 1021.66 1021.72 1021.97 1022.14 1022.26 1022.34
1013.75 1011.05 1010.70 1010.77 1011.09 1011.89 1012.49 1012.51 1012.29 1011.75 1010.50 1009.79 1009.43 1009.37 1009.17 1008.79 1008.82 1009.30 1009.85 1010.16 1010.38 1010.87 1011.22 1011.93 1012.50 1013.29 1014.12 1014.76 1015.25 1015.82 1016.40 1016.88 1017.48 1018.01 1018.71 1019.39 1020.54 1021.59 1021.99 1022.28 1022.51 1022.64 1022.71 1022.77
1012.41 1010.75 1010.13 1010.15 1010.77 1011.77 1012.12 1011.72 1012.43 1011.90 1010.10 1009.59 1009.29 1009.12 1008.61 1008.76 1008.70 1009.30 1009.52 1009.26 1009.72 1010.13 1010.84 1011.64 1012.29 1013.06 1013.83 1014.60 1015.04 1015.62 1016.16 1016.64 1017.29 1017.87 1018.77 1019.88 1020.94 1021.75 1022.30 1022.91 1023.17 1023.36 1023.28 1023.42
1011.74 1010.88 1010.09 1010.17 1010.63 1010.93 1011.36 1011.60 1012.32 1011.61 1010.99 1008.61 1008.57 1007.78 1008.18 1008.39 1008.35 1008.64 1009.30 1009.58 1009.86 1010.33 1010.95 1011.56 1012.45 1013.16 1013.79 1014.41 1015.04 1015.51 1016.09 1016.68 1017.39 1017.83 1018.62 1019.37 1020.22 1021.44 1022.44 1023.10 1023.61 1023.85 1023.88 1024.04
1010.93 1010.15 1009.90 1009.60 1009.70 1010.35 1010.28 1010.93 1011.23 1010.89 1010.61 1009.70 1007.92 1008.14 1006.95 1007.92 1007.80 1008.12 1008.75 1009.28 1009.76 1010.26 1010.53 1011.82 1012.77 1013.45 1014.35 1014.66 1015.28 1015.84 1016.28 1016.97 1017.53 1017.93 1018.36 1019.37 1020.59 1021.57 1022.61 1023.42 1023.87 1024.20 1024.43 1024.50
1011.15 1010.20 1009.81 1009.34 1009.25 1009.86 1010.23 1010.43 1010.69 1011.47 1010.53 1009.69 1007.51 1007.15 1006.74 1006.42 1006.58 1007.92 1008.33 1008.87 1009.50 1010.29 1011.05 1012.63 1013.56 1014.01 1014.94 1015.38 1015.72 1016.44 1016.90 1017.43 1017.89 1018.33 1018.99 1019.46 1020.38 1021.52 1022.62 1023.56 1024.11 1024.49 1024.58 1024.82
1011.84 1010.20 1009.50 1009.11 1008.71 1009.73 1009.40 1010.51 1011.25 1011.10 1009.92 1008.95 1008.11 1007.94 1007.00 1005.77 1006.15 1007.13 1007.88 1008.58 1009.41 1010.37 1011.50 1012.63 1014.14 1014.80 1015.50 1016.11 1016.45 1017.02 1017.44 1018.18 1018.50 1018.90 1019.64 1020.28 1020.83 1021.63 1022.43 1023.33 1024.06 1024.55 1024.74 1025.06
1011.41 1010.59 1009.84 1009.00 1008.67 1008.79 1009.54 1010.72 1010.91 1010.43 1009.33 1008.89 1008.45 1008.20 1007.50 1006.77 1006.69 1007.36 1007.51 1008.54 1009.65 1011.16 1012.16 1012.64 1013.96 1015.37 1016.21 1017.00 1017.36 1017.58 1018.23 1018.90 1019.27 1019.61 1020.37 1020.97 1021.45 1022.11 1023.01 1023.48 1024.05 1024.49 1024.65 1025.12
1011.69 1010.54 1009.90 1009.22 1009.27 1009.14 1009.81 1009.74 1009.50 1009.54 1009.28 1009.08 1008.95 1008.75 1007.89 1007.72 1007.81 1007.81 1008.35 1009.42 1010.56 1011.80 1012.92 1013.99 1014.99 1015.76 1016.18 1017.18 1018.13 1018.24 1018.75 1019.33 1019.88 1020.42 1020.88 1021.41 1021.84 1022.42 1023.29 1023.96 1024.47 1024.61 1024.80 1025.22
1012.18 1011.40 1010.70 1010.14 1009.50 1009.49 1009.23 1009.11 1009.44 1009.31 1009.26 1009.17 1008.98 1008.78 1008.53 1008.52 1008.75 1008.95 1009.59 1010.58 1011.69 1012.91 1014.05 1015.02 1016.19 1016.89 1016.92 1017.64 1018.40 1018.81 1019.20 1019.66 1020.31 1021.01 1021.76 1022.27 1022.76 1022.90 1024.00 1024.33 1025.15 1025.29 1025.16 1025.84
1012.89 1012.12 1011.91 1010.99 1011.14 1010.54 1009.71 1009.60 1009.29 1009.02 1009.29 1009.12 1009.07 1009.37 1009.19 1008.97 1008.90 1009.60 1010.66 1011.72 1012.61 1013.51 1014.52 1015.75 1016.66 1017.34 1017.96 1018.22 1019.02 1019.54 1020.17 1020.75 1021.14 1021.51 1022.20 1022.81 1023.47 1024.07 1024.39 1024.76 1024.74 1025.48 1025.68 1026.10
1013.73 1013.22 1012.93 1012.54 1011.84 1011.40 1010.78 1010.21 1009.66 1009.34 1009.58 1009.53 1009.26 1009.62 1009.14 1009.06 1009.73 1010.45 1011.59 1012.74 1013.88 1014.51 1015.30 1016.26 1017.05 1017.62 1018.36 1018.82 1019.29 1020.06 1020.75 1021.29 1021.98 1022.60 1022.74 1023.43 1023.97 1024.27 1024.73 1025.12 1025.33 1025.59 1025.83 1026.29
1014.86 1013.80 1013.62 1013.11 1012.59 1011.96 1011.58 1010.89 1009.97 1009.61 1010.00 1010.10 1009.94 1009.70 1009.44 1009.49 1010.41 1011.66 1012.45 1013.55 1014.23 1014.95 1015.95 1016.90 1017.60 1018.23 1018.81 1019.33 1020.04 1020.64 1021.16 1021.52 1022.24 1023.16 1023.09 1023.45 1023.86 1024.47 1025.17 1025.59 1025.49 1025.48 1025.66 1026.35
1015.40 1014.94 1014.64 1013.85 1013.19 1012.75 1012.04 1011.37 1010.60 1010.18 1009.90 1010.09 1009.84 1009.83 1010.14 1010.71 1011.44 1012.62 1013.63 1014.41 1015.06 1015.70 1016.53 1017.41 1018.16 1018.87 1019.25 1019.64 1020.31 1020.89 1021.42 1022.02 1022.72 1023.30 1023.38 1023.70 1023.99 1024.45 1025.08 1025.51 1025.62 1025.66 1026.06 1026.31
1016.50 1015.88 1015.23 1014.74 1013.98 1013.48 1012.73 1011.73 1011.25 1010.77 1010.36 1010.29 1010.21 1010.08 1010.40 1011.10 1011.93 1012.94 1013.87 1014.90 1015.52 1016.11 1016.95 1017.49 1018.06 1018.72 1019.50 1020.10 1020.64 1021.19 1021.91 1022.42 1022.86 1023.35 1023.62 1023.85 1024.23 1024.56 1025.14 1025.18 1025.45 1025.89 1026.08 1026.38
1017.72 1016.94 1016.10 1015.41 1014.76 1014.55 1013.53 1012.62 1011.70 1011.20 1010.89 1010.68 1010.50 1010.63 1010.78 1011.62 1012.35 1013.45 1014.21 1014.90 1015.60 1016.39 1017.12 1017.58 1018.13 1018.69 1019.41 1020.08 1020.71 1021.33 1021.93 1022.47 1022.90 1023.26 1023.70 1023.86 1024.35 1024.79 1025.22 1025.44 1025.69 1025.97 1026.13 1026.27
1019.46 1018.44 1017.32 1016.16 1015.28 1014.17 1013.61 1012.51 1011.80 1011.54 1011.32 1011.13 1011.12 1011.19 1011.26 1012.07 1012.76 1013.53 1014.18 1014.78 1015.56 1016.31 1016.86 1017.28 1017.79 1018.44 1019.33 1019.90 1020.43 1021.19 1021.72 1022.47 1022.82 1023.09 1023.60 1024.08 1024.51 1024.99 1025.38 1025.47 1025.62 1025.89 1025.97 1026.28
1020.62 1019.57 1018.44 1017.26 1015.96 1015.09 1013.61 1012.79 1012.16 1011.65 1011.45 1011.54 1011.65 1011.63 1011.71 1012.34 1013.14 1013.67 1014.32 1014.82 1015.62 1016.24 1016.74 1017.27 1017.80 1018.57 1019.35 1020.04 1020.68 1020.95 1021.79 1022.26 1022.77 1023.16 1023.55 1024.00 1024.45 1024.86 1025.23 1025.44 1025.57 1025.75 1026.00 1026.31
1021.24 1020.50 1019.32 1018.24 1017.02 1015.45 1014.05 1013.59 1013.02 1012.46 1012.58 1012.55 1012.62 1012.39 1012.73 1013.28 1013.64 1014.65 1014.92 1015.22 1015.70 1016.11 1016.57 1017.06 1017.71 1018.40 1019.16 1019.83 1020.33 1020.91 1021.61 1022.21 1022.72 1023.01 1023.42 1023.82 1024.14 1024.68 1025.06 1025.27 1025.37 1025.71 1025.85 1026.26
1021.55 1021.25 1020.72 1019.01 1017.92 1016.20 1015.30 1014.27 1013.64 1012.86 1013.46 1013.31 1013.25 1013.29 1013.89 1014.22 1015.02 1015.85 1015.98 1016.17 1016.38 1016.61 1016.95 1017.37 1017.91 1018.52 1019.17 1019.78 1020.27 1020.96 1021.56 1022.14 1022.44 1022.57 1022.99 1023.64 1024.28 1024.57 1024.80 1024.80 1025.04 1025.25 1025.65 1025.64
1021.52 1021.16 1020.63 1019.62 1018.58 1016.96 1015.73 1015.19 1014.32 1014.61 1015.41 1014.44 1014.30 1014.16 1014.83 1015.37 1016.40 1016.73 1017.22 1017.60 1017.83 1017.94 1018.14 1018.30 1018.52 1019.05 1019.51 1019.97 1020.46 1021.04 1021.54 1021.89 1022.09 1022.71 1023.16 1023.61 1023.83 1024.10 1024.13 1024.24 1024.59 1024.97 1025.11 1025.23
1020.46 1020.39 1020.27 1019.87 1018.97 1017.85 1016.70 1015.83 1016.03 1016.60 1015.85 1015.65 1015.29 1015.33 1016.02 1016.54 1017.31 1017.86 1018.43 1018.75 1018.81 1019.11 1019.33 1019.48 1019.82 1020.37 1020.63 1020.77 1021.11 1021.73 1022.10 1022.15 1022.32 1022.54 1023.08 1023.47 1023.58 1023.74 1023.92 1024.22 1024.42 1024.62 1024.95 1025.29
1020.22 1019.80 1019.55 1019.35 1018.75 1018.11 1017.82 1017.79 1017.60 1017.45 1017.00 1016.63 1016.35 1016.54 1016.91 1017.50 1018.28 1018.78 1019.48 1019.73 1019.80 1019.94 1020.27 1020.56 1020.62 1021.06 1021.40 1021.65 1021.76 1022.17 1022.19 1022.25 1022.55 1023.09 1023.44 1023.47 1023.49 1023.58 1023.73 1024.03 1024.39 1024.78 1024.84 1024.85
1020.34 1019.87 1019.87 1019.60 1019.14 1018.81 1018.66 1018.24 1018.45 1018.22 1017.97 1017.71 1017.38 1017.71 1018.04 1018.57 1019.25 1019.91 1020.07 1020.40 1020.70 1020.99 1021.13 1021.41 1021.88 1022.12 1022.36 1022.17 1022.31 1022.49 1022.43 1022.50 1022.84 1023.17 1023.25 1023.42 1023.75 1023.70 1023.72 1023.79 1023.94 1024.13 1024.16 1024.18
1021.03 1020.67 1020.54 1020.35 1019.76 1019.58 1019.45 1019.45 1019.37 1019.05 1018.69 1018.65 1018.88 1019.16 1019.63 1019.93 1020.55 1020.83 1021.12 1021.50 1021.95 1022.32 1022.61 1022.76 1023.01 1023.02 1023.08 1022.97 1022.99 1022.89 1022.88 1022.92 1023.44 1023.29 1023.36 1023.28 1023.33 1023.56 1023.51 1023.53 1023.40 1023.36 1023.03 1023.20
1022.01 1021.84 1021.70 1021.29 1021.02 1020.75 1020.89 1020.82 1020.55 1020.37 1020.45 1020.42 1020.39 1020.95 1021.38 1021.43 1021.84 1022.24 1022.81 1023.02 1023.26 1023.41 1023.49 1023.55 1023.59 1023.65 1023.71 1023.68 1023.60 1023.30 1023.06 1023.27 1023.64 1023.43 1023.24 1023.13 1023.20 1023.36 1023.36 1022.98 1022.66 1022.38 1022.10 1022.03
Thickness
5469 5488 5515 5536 5547 5553 5551 5557 5569 5585 5594 5601 5613 5612 5633 5651 5652 5652 5653 5659 5669 5672 5677 5673 5674 5673 5669 5668 5668 5666 5663 5663 5662 5658 5653 5650 5645 5639 5638 5637 5636 5634 5632 5631
5457 5503 5514 5531 5540 5542 5545 5553 5563 5568 5585 5599 5609 5611 5624 5636 5650 5653 5654 5660 5665 5667 5671 5672 5673 5672 5668 5665 5665 5664 5662 5660 5658 5657 5652 5648 5640 5633 5630 5629 5628 5626 5625 5623
5467 5505 5520 5528 5535 5534 5537 5547 5555 5561 5585 5594 5604 5606 5614 5626 5642 5643 5648 5663 5667 5668 5668 5669 5671 5670 5666 5662 5662 5662 5660 5657 5655 5654 5647 5639 5632 5626 5623 5619 5617 5615 5615 5612
5480 5501 5520 5527 5531 5538 5540 5551 5547 5555 5564 5591 5600 5597 5607 5621 5630 5639 5642 5649 5656 5660 5663 5667 5663 5664 5664 5662 5660 5658 5655 5653 5650 5649 5644 5639 5635 5624 5616 5611 5607 5604 5603 5600
5497 5506 5512 5529 5535 5542 5552 5552 5554 5556 5559 5575 5596 5591 5614 5618 5620 5636 5641 5644 5649 5655 5662 5659 5657 5656 5653 5654 5651 5650 5649 5645 5644 5643 5641 5633 5623 5615 5607 5601 5597 5593 5590 5588
5482 5499 5518 5532 5543 5544 5549 5556 5557 5540 5548 5569 5593 5597 5605 5617 5629 5631 5640 5644 5648 5650 5652 5645 5644 5646 5642 5642 5642 5638 5638 5635 5634 5632 5628 5625 5618 5609 5600 5592 5587 5582 5580 5576
5466 5499 5510 5525 5536 5538 5550 5548 5550 5554 5562 5573 5577 5585 5602 5630 5636 5636 5640 5645 5646 5647 5643 5639 5631 5634 5632 5630 5629 5627 5626 5622 5622 5620 5615 5610 5606 5600 5593 5585 5578 5572 5568 5563
5469 5497 5507 5522 5536 5546 5552 5539 5541 5545 5565 5568 5575 5577 5592 5611 5624 5630 5642 5640 5642 5636 5633 5635 5628 5622 5618 5614 5613 5615 5613 5608 5608 5606 5601 5596 5593 5587 5580 5575 5569 5562 5559 5551
5478 5496 5510 5521 5527 5543 5540 5549 5555 5546 5542 5560 5563 5567 5591 5601 5610 5621 5627 5628 5626 5625 5621 5616 5611 5610 5609 5606 5601 5601 5600 5599 5597 5594 5589 5586 5583 5577 5569 5562 5555 5551 5546 5537
5475 5486 5508 5516 5523 5536 5549 5554 5549 5546 5556 5561 5570 5569 5583 5589 5599 5606 5610 5612 5612 5608 5603 5598 5594 5593 5597 5595 5590 5591 5593 5591 5587 5581 5576 5573 5566 5565 5553 5548 5538 5532 5530 5522
5471 5489 5493 5517 5506 5519 5542 5545 5552 5559 5555 5567 5570 5565 5572 5584 5598 5599 5599 5596 5597 5598 5595 5590 5587 5585 5584 5584 5581 5580 5577 5574 5573 5570 5564 5558 5551 5545 5540 5534 5531 5520 5517 5511
5465 5480 5480 5494 5500 5513 5523 5541 5552 5552 5557 5550 5560 5567 5576 5585 5591 5593 5590 5584 5581 5582 5582 5579 5577 5575 5573 5572 5572 5568 5565 5562 5559 5553 5550 5545 5538 5533 5527 5522 5517 5512 5508 5499
5456 5472 5469 5491 5506 5515 5519 5533 5550 5555 5545 5546 5557 5568 5575 5580 5580 5577 5572 5571 5572 5571 5568 5564 5563 5561 5560 5560 5558 5557 5555 5555 5547 5537 5539 5534 5530 5522 5513 5508 5507 5503 5498 5490
5457 5463 5474 5499 5506 5507 5527 5532 5546 5550 5551 5551 5560 5567 5571 5569 5566 5563 5560 5559 5559 5560 5559 5556 5552 5550 5551 5552 5548 5545 5544 5539 5533 5528 5527 5523 5520 5514 5506 5500 5496 5493 5487 5480
5442 5448 5471 5474 5495 5499 5512 5533 5540 5548 5556 5553 5561 5567 5572 5570 5565 5560 5557 5553 5553 5553 5551 5551 5551 5549 5546 5544 5542 5539 5533 5529 5526 5521 5519 5515 5509 5505 5498 5495 5489 5482 5476 5470
5431 5435 5464 5465 5491 5491 5497 5524 5537 5544 5550 5557 5563 5564 5569 5564 5562 5556 5556 5554 5552 5550 5550 5549 5548 5546 5542 5538 5536 5532 5527 5522 5519 5516 5511 5508 5502 5496 5489 5484 5479 5472 5467 5462
5414 5433 5449 5455 5473 5492 5492 5511 5535 5542 5546 5551 5558 5562 5565 5560 5562 5558 5556 5556 5554 5552 5550 5549 5546 5543 5538 5535 5532 5526 5522 5516 5513 5510 5505 5499 5493 5486 5480 5476 5470 5464 5459 5451
5400 5421 5435 5457 5475 5479 5516 5513 5528 5541 5546 5548 5552 5558 5562 5562 5556 5558 5557 5555 5552 5550 5547 5544 5542 5538 5532 5528 5523 5522 5515 5511 5507 5503 5498 5491 5485 5479 5472 5466 5460 5454 5447 5439
5392 5410 5438 5453 5471 5489 5513 5513 5525 5535 5538 5535 5544 5551 5549 5549 5554 5546 5547 5552 5550 5549 5548 5546 5541 5536 5530 5527 5523 5518 5512 5506 5500 5495 5490 5485 5479 5471 5463 5456 5451 5443 5437 5429
5390 5402 5416 5447 5448 5474 5497 5500 5508 5530 5532 5526 5534 5544 5541 5548 5553 5543 5536 5537 5539 5541 5541 5539 5535 5530 5526 5520 5516 5510 5505 5499 5494 5492 5485 5475 5466 5459 5453 5449 5443 5435 5427 5423
5395 5405 5413 5435 5461 5464 5485 5487 5502 5525 5526 5513 5521 5541 5537 5547 5526 5523 5520 5520 5519 5520 5523 5523 5524 5522 5518 5513 5508 5504 5498 5494 5490 5481 5473 5464 5459 5452 5448 5442 5434 5425 5420 5413
5390 5396 5421 5430 5443 5472 5470 5497 5518 5493 5497 5507 5517 5527 5515 5511 5511 5508 5506 5505 5508 5509 5509 5509 5508 5504 5500 5500 5497 5492 5487 5483 5476 5471 5462 5455 5450 5444 5438 5430 5423 5415 5407 5397
5412 5420 5425 5446 5452 5457 5463 5472 5477 5479 5491 5500 5510 5508 5507 5505 5502 5500 5496 5495 5497 5499 5498 5497 5498 5494 5489 5483 5484 5478 5475 5469 5462 5454 5449 5443 5438 5433 5428 5420 5410 5400 5392 5385
5407 5414 5415 5435 5449 5454 5459 5469 5468 5473 5486 5489 5495 5498 5498 5495 5491 5487 5489 5488 5488 5487 5487 5484 5479 5477 5476 5473 5470 5467 5462 5456 5450 5446 5440 5433 5427 5421 5414 5408 5398 5390 5383 5376
5396 5407 5422 5426 5450 5457 5457 5458 5462 5469 5475 5480 5480 5482 5482 5482 5480 5481 5480 5478 5475 5474 5468 5466 5466 5465 5462 5457 5455 5451 5449 5444 5438 5434 5427 5423 5417 5409 5403 5396 5390 5384 5379 5370
5392 5403 5421 5432 5433 5446 5449 5448 5453 5461 5464 5467 5472 5470 5467 5473 5471 5467 5462 5460 5460 5457 5455 5455 5451 5447 5445 5441 5441 5440 5436 5431 5426 5421 5416 5410 5404 5396 5390 5386 5383 5378 5373 5365